Weather Roundup
Issued by NWS

Home | Current Version | Previous Version | Graphics & Text | Print | Product List | Glossary Off
Versions: 1 2 3 4 5 6 7 8 9 10 11 12 13 14 15 16 17 18 19 20 21 22 23 24 25 26 27 28 29 30 31 32 33 34 35 36 37 38 39 40 41 42 43 44 45 46 47 48 49 50

000
NZUS93 KARX 311459
HRRWXR

CURRENT HOURLY OBSERVATIONS ACROSS
MUCH OF THE UPPER MISSISSIPPI VALLEY
NATIONAL WEATHER SERVICE LA CROSSE WI
1000 AM CDT SUN AUG 31 2014


...SOUTHEAST MINNESOTA...


CITY           SKY/WX    TMP DP  RH WIND       PRES   REMARKS
ROCHESTER      PTSUNNY   72  65  78 S16G23    29.87R
ROCHESTER/MAYO FAIR      71  65  82 SE13G22   29.86S
WINONA         CLOUDY    70  64  83 SE8       29.88R
AUSTIN         SUNNY     72  66  83 S10G16    29.85F
ALBERT LEA     MOSUNNY   73  66  78 S16G24    29.82F
DODGE CENTER   MOSUNNY   72  66  83 S15G21    29.84F
PRESTON        MOSUNNY   70  70  98 CALM      29.89S
OWATONNA       SUNNY     73  64  73 SE15G23   29.81F
FARIBAULT      SUNNY     75  63  64 SE16G23   29.79F
$$

...ELSEWHERE IN MINNESOTA...


CITY           SKY/WX    TMP DP  RH WIND       PRES   REMARKS
MINNEAPOLIS    MOSUNNY   70  65  84 SE18      29.78F
INTNL FALLS    CLOUDY    61  57  87 SE12G17   29.74F
DULUTH         CLOUDY    61  56  83 E16G22    29.82F
RED WING       CLOUDY    70  66  88 SE12      29.83S
REDWOOD FALLS  MOSUNNY   75  67  76 S12       29.69F
MANKATO        MOSUNNY   72  63  73 S16G25    29.75F
WORTHINGTON    SUNNY     73  66  78 S14G22    29.75S
FAIRMONT       MOSUNNY   72  48  43 S18G24    29.76F
$$

...SOUTHWEST WISCONSIN...


CITY           SKY/WX    TMP DP  RH WIND       PRES   REMARKS
LA CROSSE      MOSUNNY   72  65  78 S9        29.88S
PRAIRIE DU CHI NOT AVBL
BOSCOBEL       SUNNY     73  67  81 N3        29.91F
LONE ROCK      NOT AVBL
PLATTEVILLE    PTSUNNY   73  68  87 CALM      29.94S
FORT MC COY    MOSUNNY   70  65  85 CALM      29.90F
CAMP DOUGLAS   CLOUDY    66  66 100 SE8       29.92F
VIROQUA        CLOUDY    68  68 100 S7        29.93R
WIS DELLS      PTSUNNY   69  65  85 CALM      29.93S
$$

...ELSEWHERE IN WISCONSIN...


CITY           SKY/WX    TMP DP  RH WIND       PRES   REMARKS
MILWAUKEE      MOSUNNY   76  68  76 SW5       29.94R
MADISON        MOSUNNY   76  66  71 VRB3      29.93S
GREEN BAY      CLOUDY    67  61  81 CALM      29.95S
EAU CLAIRE     CLOUDY    66  64  93 S12       29.87R
BLACK RVR FLS  CLOUDY    66  66 100 CALM      29.90S FOG
MEDFORD        CLOUDY    61  61  99 SE6       29.93F FOG
WAUSAU         CLOUDY    65  60  84 E5        29.93S
WIS RAPIDS     CLOUDY    68  64  87 S3        29.94S
MARSHFIELD     CLOUDY    66  64  93 S9        29.92F FOG
RICE LAKE      CLOUDY    64  60  89 SE10      29.88S
$$

...NORTHEAST IOWA...


CITY           SKY/WX    TMP DP  RH WIND       PRES   REMARKS
WATERLOO       MOSUNNY   75  68  78 S9        29.89R
DUBUQUE        SUNNY     74  68  81 S9        29.94S
DECORAH        MOSUNNY   72  68  88 S8        29.90R
MASON CITY     PTSUNNY   73  68  84 S12       29.86R
CHARLES CITY   MOSUNNY   70  68  94 S10G17    29.89S
OELWEIN        SUNNY     72  70  94 S12       29.91S
$$

...ELSEWHERE IN IOWA...


CITY           SKY/WX    TMP DP  RH WIND       PRES   REMARKS
DES MOINES     MOSUNNY   78  69  73 S12       29.85F
IOWA CITY      SUNNY     75  70  84 SE8       29.93R
FORT DODGE     PTSUNNY   75  66  73 S12G18    29.83S
MARSHALLTOWN   MOSUNNY   77  69  76 S13       29.87F
CEDAR RAPIDS   SUNNY     76  70  82 S8        29.91S
$$

...NORTHERN ILLINOIS...


CITY           SKY/WX    TMP DP  RH WIND       PRES   REMARKS
CHICAGO-OHARE  MOSUNNY   77  67  71 VRB3      29.94S
DUPAGE         MOSUNNY   76  69  79 VRB3      29.95S
CHICAGO-MIDWAY MOSUNNY   78  69  73 VRB6      29.94F
MOLINE         SUNNY     78  69  73 S7        29.93R
ROCKFORD       MOSUNNY   76  69  79 S3        29.96R
STERLING       SUNNY     79  70  73 E3        29.95R
PEORIA         CLOUDY    75  70  84 S7        29.96R
$$

NOTE: "FAIR" INDICATES FEW OR NO CLOUDS BELOW 12,000 FEET WITH NO
SIGNIFICANT WEATHER AND/OR OBSTRUCTIONS TO VISIBILITY. WIND
SPEEDS ARE IN MILES-PER-HOUR.



USA.gov is the U.S. government's official web portal to all federal, state and local government web resources and services.